Location: Home
(42.5358°N, 72.7383°W)
Time: 23:51:24
(UTC-05:00)

Vanguard 1 - Pass Details

Date: 04 December 2021
Orbit: 652 x 3830 km, 34.2° (Epoch: 21 January)

Event Time Altitude Azimuth Distance (km) Brightness Sun altitude
Rises 21:49:13 0° 214° (SSW) 6,579 14.3 -59.2°
Reaches altitude 10° 21:53:29 10° 207° (SSW) 5,924 13.9 -59.8°
Enters shadow 21:54:29 12° 205° (SSW) 5,783 13.8 -60.0°
Maximum altitude 22:11:36 42° 144° (SE) 4,696 - -62.5°
Drops below altitude 10° 22:31:56 10° 84° (E) 6,653 - -65.2°
Exits shadow 22:35:54 - 79° (E) 7,251 14.4 -65.7°
Sets 22:37:02 0° 78° (ENE) 7,425 14.4 -65.8°
